Overview Statistics Trail Chart Weather Telemetry Raw packets
 

This is the latest recevied weather packets stored in our database for station/object S51UL-6. If no packets are shown the sender has not sent any weather packets the latest 10 day(s).

<< 42 43 44 45 46 47 48 >>
Time Temp. Humidity Pressure Rain* Wind** Luminosity Snow
1788314489 15.56° C 87% 1022.8 hPa 9.91 mm - - -
1788313908 15.56° C 87% 1023.1 hPa 12.95 mm - - -
1788311188 15° C 87% 1022.8 hPa 39.37 mm - - -
1788310590 13.89° C 86% 1022.5 hPa 35.81 mm - - -
1788310344 13.89° C 86% 1022.7 hPa 34.04 mm - - -
1788310287 13.89° C 86% 1022.7 hPa 34.04 mm - - -
1788309991 13.89° C 85% 1022.2 hPa 32.51 mm - - -
1788309388 13.33° C 85% 1022 hPa 34.8 mm - - -
1788307888 13.33° C 85% 1021.9 hPa 30.99 mm - - -
1788307288 13.33° C 84% 1022 hPa 36.83 mm - - -
1788306390 13.33° C 84% 1022.2 hPa 37.85 mm - - -
1788306089 13.33° C 84% 1022.2 hPa 41.91 mm - - -
1788305488 13.33° C 84% 1022 hPa 36.83 mm - - -
1788304290 13.89° C 83% 1022 hPa 33.53 mm - - -
1788303092 13.89° C 83% 1021.9 hPa 28.45 mm - - -
1788301589 14.44° C 82% 1021.8 hPa 24.89 mm - - -
1788300989 14.44° C 82% 1021.8 hPa 29.46 mm - - -
1788300390 14.44° C 81% 1021.8 hPa 26.92 mm - - -
1788300092 14.44° C 82% 1021.7 hPa 27.43 mm - - -
1788299489 14.44° C 81% 1021.7 hPa 30.99 mm - - -
1788298590 15° C 81% 1021.8 hPa 33.02 mm - - -
1788297990 15° C 80% 1021.8 hPa 28.45 mm - - -
1788297090 15° C 80% 1021.6 hPa 26.42 mm - - -
1788296491 15.56° C 79% 1021.6 hPa 24.38 mm - - -
1788295890 15.56° C 79% 1021.5 hPa 22.61 mm - - -

* Rain latest hour (hover to see other rain measurements)
** Current wind speed in m/s (hover to see current wind gust speed)